Location: Burzi?i
(45.0869°N, 16.0577°E)
Time: 11:30:14
(UTC+00:00)

Okean-O - Pass Details

Date: 29 October 2020
Orbit: 638 x 641 km, 98.2° (Epoch: 28 November)

Event Time Altitude Azimuth Distance (km) Brightness Sun altitude
Rises 16:22:08 0° 131° (SE) 2,937 5.7 -6.7°
Reaches altitude 10° 16:24:40 10° 117° (ESE) 2,033 4.8 -7.1°
Maximum altitude 16:28:09 23° 65° (ENE) 1,359 3.7 -7.7°
Drops below altitude 10° 16:31:39 10° 13° (NNE) 2,043 5.0 -8.3°
Sets 16:34:12 0° 359° (N) 2,957 5.9 -8.8°
